This is the latest recevied weather packets stored in our database for station/object W3JGB. If no packets are shown the sender has not sent any weather packets the latest 10 day(s).
| Time | Temp. | Humidity | Pressure | Rain* | Wind** | Luminosity | Snow |
|---|---|---|---|---|---|---|---|
| 1777726905 | 7.78° C | 70% | 1014.3 hPa | 0 mm | - | 210 W/m² | - |
| 1777726601 | 7.78° C | 71% | 1014.3 hPa | 0 mm | - | 282 W/m² | - |
| 1777726298 | 7.78° C | 72% | 1014.4 hPa | 0 mm | - | 181 W/m² | - |
| 1777725995 | 7.22° C | 73% | 1014.3 hPa | 0 mm | - | 225 W/m² | - |
| 1777725692 | 7.22° C | 75% | 1014.6 hPa | 0 mm | - | 203 W/m² | - |
| 1777725390 | 7.22° C | 76% | 1014.5 hPa | 0 mm | - | 170 W/m² | - |
| 1777725087 | 7.22° C | 76% | 1014.7 hPa | 0 mm | - | 258 W/m² | - |
| 1777724784 | 6.67° C | 80% | 1014.6 hPa | 0 mm | - | 211 W/m² | - |
| 1777724480 | 7.22° C | 77% | 1014.5 hPa | 0 mm | - | 136 W/m² | - |
| 1777724179 | 6.11° C | 78% | 1014.6 hPa | 0 mm | - | 161 W/m² | - |
| 1777723875 | 6.67° C | 80% | 1014.7 hPa | 0 mm | - | 177 W/m² | - |
| 1777723571 | 6.11° C | 80% | 1014.6 hPa | 0 mm | - | 162 W/m² | - |
| 1777723269 | 6.11° C | 79% | 1014.6 hPa | 0 mm | - | 115 W/m² | - |
| 1777722968 | 6.11° C | 81% | 1014.9 hPa | 0 mm | - | 109 W/m² | - |
| 1777722668 | 5.56° C | 82% | 1014.6 hPa | 0 mm | - | 128 W/m² | - |
| 1777722364 | 5.56° C | 82% | 1014.5 hPa | 0 mm | - | 81 W/m² | - |
| 1777722061 | 6.11° C | 85% | 1014.5 hPa | 0 mm | - | 83 W/m² | - |
| 1777721759 | 5.56° C | 86% | 1014.4 hPa | 0 mm | - | 69 W/m² | - |
| 1777721457 | 5° C | 86% | 1014.3 hPa | 0 mm | - | 42 W/m² | - |
| 1777721155 | 5° C | 86% | 1014.3 hPa | 0 mm | - | 42 W/m² | - |
| 1777720852 | 5° C | 88% | 1014.4 hPa | 0 mm | - | 37 W/m² | - |
| 1777720549 | 4.44° C | 89% | 1014 hPa | 0 mm | - | 33 W/m² | - |
| 1777720247 | 4.44° C | 89% | 1014.2 hPa | 0 mm | - | 22 W/m² | - |
| 1777719944 | 4.44° C | 90% | 1014 hPa | 0 mm | - | 23 W/m² | - |
| 1777719642 | 4.44° C | 90% | 1014.1 hPa | 0 mm | - | 29 W/m² | - |
* Rain latest hour (hover to see other rain measurements)
** Current wind speed in m/s (hover to see current wind gust speed)